Wind_Speed
10 10 11 11 12 12 12 11 12 13 14 16 18 18 19 20 21 22 23 25 27 29 31 33 34 35 35 36 37 38 39 39 39 39 39 39 39 39 39 39 39 39 39 39
10 10 9 9 10 10 10 11 13 15 16 18 19 20 21 22 22 23 25 26 28 30 32 34 35 35 36 37 38 39 39 40 40 40 40 41 41 41 40 40 40 40 39 40
10 9 9 9 9 9 10 12 14 16 18 20 21 21 22 23 23 24 26 27 29 31 33 35 35 36 37 38 39 39 40 41 41 42 42 42 42 41 40 40 40 40 40 40
10 10 9 9 10 10 11 13 15 17 19 21 21 22 23 23 24 25 27 29 30 32 34 35 36 36 37 39 40 41 42 42 43 43 43 44 43 42 41 41 41 40 40 40
11 11 9 9 10 11 13 14 16 18 20 21 21 22 23 23 25 26 28 30 31 33 35 36 36 37 39 40 42 43 43 44 44 45 44 44 43 42 41 41 41 40 39 38
13 12 10 10 11 13 14 15 18 19 20 21 21 22 23 24 26 27 29 31 32 34 35 36 37 38 40 41 43 43 44 45 46 45 45 45 44 42 41 40 40 39 38 38
14 13 11 13 14 15 17 19 19 20 22 23 23 24 25 26 27 28 30 31 33 34 35 36 38 39 41 42 44 45 46 46 46 46 46 46 44 42 40 40 40 38 37 37
16 16 16 17 17 18 19 21 22 23 24 25 25 26 27 28 29 30 32 32 34 35 36 37 39 41 42 44 45 46 47 47 47 47 46 45 44 42 40 40 38 37 37 36
19 19 19 20 21 21 22 23 24 24 25 26 27 28 29 30 31 32 34 34 35 36 37 38 40 42 44 46 47 48 48 48 48 47 46 45 43 41 40 39 38 37 36 35
23 22 23 24 24 24 24 25 25 26 27 28 29 29 31 32 33 34 35 36 36 37 39 40 42 44 46 48 48 48 48 48 48 47 45 44 42 41 39 38 37 36 35 34
26 25 25 25 25 25 26 26 27 28 28 29 30 31 32 33 34 34 36 37 38 39 41 42 44 46 48 49 49 49 48 48 48 46 44 42 41 40 39 38 37 35 34 33
28 27 28 27 26 27 27 28 28 29 30 30 31 32 33 34 34 35 37 38 39 41 43 45 47 48 49 50 50 49 48 48 47 45 43 41 40 39 38 37 36 35 34 31
30 29 29 28 28 29 29 30 30 31 31 32 33 33 34 35 36 37 38 40 41 44 45 47 49 50 50 50 50 50 49 48 45 43 41 40 38 37 36 36 36 34 33 31
31 31 31 30 30 31 32 32 33 33 34 34 35 36 36 37 38 39 40 42 44 46 47 49 50 50 51 51 50 50 48 46 43 41 39 38 38 37 35 34 33 32 31 30
31 32 32 33 33 34 34 34 35 36 37 37 38 38 38 39 40 41 43 44 46 48 49 50 51 51 51 51 50 48 47 44 41 39 38 38 37 35 34 34 32 30 29 28
33 34 35 35 36 36 37 37 38 39 39 39 40 41 41 42 43 44 46 48 49 50 51 51 52 52 52 51 49 47 44 42 39 37 37 36 35 34 33 32 31 29 28 27
36 37 37 38 38 38 38 39 40 41 41 42 43 44 45 46 47 47 49 51 52 52 52 53 53 52 52 51 48 45 42 39 37 36 35 35 33 32 31 31 29 28 26 25
38 38 39 39 39 40 41 42 42 43 44 45 46 48 49 50 49 50 52 52 53 53 53 53 53 53 52 50 46 42 40 37 35 34 33 32 31 30 30 28 27 26 24 23
39 40 40 41 42 42 43 44 46 47 47 48 49 50 51 52 53 53 54 54 54 54 53 53 53 52 50 47 43 40 37 35 33 32 30 29 28 28 27 25 24 24 23 22
41 42 43 44 44 45 46 47 49 50 50 51 52 53 54 56 56 56 56 55 55 55 54 53 52 49 46 43 40 37 34 33 31 29 28 27 26 25 24 22 21 22 21 20
44 45 45 46 47 49 50 51 52 54 55 56 57 57 58 58 58 58 57 56 55 55 53 51 49 46 43 40 37 34 32 31 29 27 25 24 23 23 22 20 19 19 19 18
47 48 49 50 52 53 54 56 56 57 58 59 60 60 60 59 59 58 58 56 54 53 50 48 45 42 39 36 34 32 30 28 26 24 23 22 21 20 18 17 16 16 16 15
51 53 54 55 56 57 58 59 59 60 60 61 60 60 60 60 59 58 56 54 52 50 47 45 42 40 36 33 31 29 27 25 23 21 20 19 18 17 15 15 14 13 13 12
55 56 57 58 59 59 59 60 60 60 60 60 60 60 59 58 57 55 54 51 48 45 43 40 38 36 32 30 28 26 24 22 20 18 17 16 15 14 13 12 11 10 10 10
58 58 59 59 60 60 60 60 60 60 59 58 58 57 56 55 53 51 48 46 43 41 38 36 34 32 29 27 25 23 21 19 18 16 15 14 13 11 11 10 9 8 8 8
59 59 60 60 60 60 60 60 59 59 58 56 55 53 52 51 49 46 43 41 38 37 35 33 31 29 27 25 23 21 19 17 15 13 12 11 11 10 9 8 6 6 5 5
59 59 60 60 60 59 59 58 57 56 55 53 52 50 48 46 44 40 37 35 33 32 30 28 27 26 24 22 20 19 17 15 13 12 11 10 9 9 7 6 4 3 3 3
Wind_Direction
268 272 276 276 278 287 295 301 309 315 318 321 323 326 328 329 330 331 332 333 334 335 335 335 335 333 333 333 334 333 333 332 331 330 328 326 323 321 319 316 314 312 309 306
272 278 284 283 284 289 296 299 303 307 312 316 318 321 323 325 327 329 331 333 333 334 335 334 334 333 333 333 334 334 333 332 331 330 328 326 323 321 319 317 315 313 311 308
274 283 292 297 299 299 302 302 302 305 309 312 315 318 320 323 326 329 331 332 333 333 333 332 332 333 333 333 333 333 333 332 331 330 328 326 324 322 319 318 317 314 312 310
271 281 293 300 301 302 303 303 303 305 308 311 314 317 319 323 326 328 329 331 331 331 331 331 332 333 333 333 333 332 332 332 331 330 329 327 325 323 320 319 317 315 313 311
268 275 287 293 296 299 302 303 304 307 308 311 315 317 321 323 325 326 328 329 329 329 329 330 331 332 333 333 333 333 332 332 331 330 329 327 326 323 321 320 318 316 315 313
271 276 283 294 297 303 302 304 306 308 310 314 317 320 322 323 324 325 325 326 326 327 328 328 329 331 332 333 333 332 332 332 331 330 329 327 326 324 322 321 320 318 316 315
275 278 288 297 303 305 309 309 309 311 313 316 319 320 320 321 321 322 323 324 325 326 327 328 328 330 331 331 332 332 331 331 330 329 329 328 327 325 324 323 321 319 318 317
277 284 294 298 304 306 307 307 308 310 313 315 316 317 317 318 319 320 322 323 324 326 327 328 329 330 330 330 330 330 330 330 330 329 329 328 327 326 325 325 323 321 320 319
278 285 293 297 302 304 305 306 308 309 310 311 312 313 314 315 317 319 321 322 323 325 327 329 329 330 330 330 329 329 329 329 329 329 329 329 328 327 326 326 324 323 323 322
281 286 290 294 298 300 302 303 305 305 306 307 308 309 311 312 315 317 319 321 323 325 326 327 328 329 329 329 329 329 329 329 329 329 330 330 329 328 328 327 326 325 324 324
279 283 285 288 291 294 296 298 299 300 302 304 306 307 309 311 313 315 317 320 322 324 325 326 326 326 327 328 328 328 329 329 329 330 330 329 329 329 329 329 328 328 327 326
276 279 282 286 288 289 291 294 295 297 299 302 304 306 308 310 312 314 317 319 320 322 324 325 325 326 326 327 327 327 328 329 329 330 330 329 329 329 329 329 330 330 330 330
275 278 281 285 286 287 288 290 292 294 297 300 302 304 306 307 309 312 315 317 318 320 321 322 323 324 325 326 326 327 327 328 329 329 329 329 329 330 330 330 330 331 331 332
276 279 281 282 283 284 286 288 291 293 295 297 299 302 303 305 307 309 312 314 315 317 318 319 320 322 323 324 325 326 327 328 328 327 328 329 329 329 330 331 331 332 333 333
275 276 278 279 281 282 284 286 289 291 292 294 296 298 300 303 305 307 308 310 312 314 315 317 318 320 321 323 324 324 325 326 326 326 327 328 329 329 331 332 333 333 334 335
275 276 277 278 280 282 284 285 286 288 289 292 294 296 298 300 302 304 305 308 310 312 314 314 315 317 319 321 322 323 323 324 324 325 326 327 328 330 331 332 333 335 336 337
275 276 278 279 281 283 284 285 286 288 288 290 292 294 296 298 300 301 304 306 308 310 311 312 313 315 317 319 320 321 322 322 322 323 324 326 327 329 331 333 335 336 338 340
276 277 279 281 282 283 284 285 286 287 288 289 291 292 295 296 298 300 302 303 305 307 309 310 311 313 314 317 318 318 320 320 320 321 324 326 327 329 332 333 335 337 340 343
280 281 282 283 284 284 284 285 286 287 288 288 290 292 294 296 298 300 301 303 304 305 306 307 309 310 312 314 315 315 316 317 318 319 322 326 327 328 331 334 338 341 343 346
282 283 284 284 285 285 286 286 287 288 288 289 290 292 294 296 297 299 300 301 303 303 304 305 307 308 309 311 311 312 313 314 315 316 319 323 325 326 329 333 337 341 345 348
282 282 283 284 284 285 286 286 287 288 288 289 291 292 294 295 296 298 299 300 301 301 302 303 304 305 306 307 308 308 309 311 312 314 316 320 322 323 327 332 336 341 346 350
282 283 283 284 284 285 286 286 287 288 289 290 291 292 293 294 295 296 297 298 299 299 300 300 301 301 302 303 303 303 305 307 309 311 312 316 318 320 324 330 334 340 346 352
283 284 284 284 285 285 286 287 288 288 289 290 291 292 293 294 294 295 295 296 296 296 297 296 296 297 297 298 298 299 301 303 305 307 309 312 315 318 321 327 332 338 346 353
285 285 285 286 286 287 288 288 289 290 290 291 292 292 293 293 293 294 294 294 294 293 293 293 293 293 293 293 292 294 296 298 300 301 305 308 313 316 320 326 332 338 346 354
286 287 287 288 288 289 289 290 291 291 292 292 293 293 293 293 293 293 292 292 290 290 289 288 289 289 288 288 287 288 290 291 293 296 300 302 306 311 317 325 332 336 344 354
288 289 289 290 290 291 292 292 292 293 293 294 294 294 293 293 293 292 290 289 287 286 284 283 282 282 281 281 279 279 281 281 283 286 290 294 297 301 308 317 328 340 353 7
290 290 291 291 292 293 294 294 294 295 295 295 295 294 294 293 292 290 287 285 283 282 280 278 276 274 273 274 273 272 271 270 272 275 280 285 288 290 295 302 311 324 352 25
Height
5844 5843 5843 5842 5842 5841 5840 5839 5838 5837 5834 5833 5830 5827 5824 5821 5818 5815 5812 5808 5804 5800 5795 5790 5785 5780 5774 5769 5762 5756 5750 5743 5736 5730 5723 5717 5711 5704 5698 5692 5687 5681 5676 5671
5841 5840 5840 5839 5838 5837 5836 5835 5834 5832 5831 5828 5825 5822 5819 5816 5813 5810 5807 5803 5799 5795 5790 5785 5780 5774 5768 5762 5756 5750 5743 5736 5729 5722 5715 5708 5702 5695 5689 5682 5676 5671 5665 5660
5839 5838 5837 5837 5835 5834 5833 5832 5830 5828 5827 5824 5821 5818 5815 5812 5809 5806 5802 5798 5794 5789 5784 5780 5774 5769 5763 5756 5750 5743 5736 5729 5722 5714 5707 5700 5693 5686 5679 5673 5666 5660 5654 5648
5836 5836 5835 5836 5832 5831 5830 5828 5827 5824 5822 5819 5817 5814 5810 5808 5804 5801 5797 5793 5789 5784 5779 5774 5769 5763 5757 5750 5743 5736 5729 5721 5714 5706 5699 5691 5684 5677 5670 5663 5656 5649 5643 5636
5833 5833 5832 5832 5830 5828 5827 5825 5823 5820 5817 5815 5812 5809 5806 5803 5800 5796 5792 5788 5784 5779 5774 5769 5763 5757 5750 5743 5736 5729 5721 5714 5706 5698 5690 5683 5675 5667 5660 5653 5646 5638 5632 5625
5830 5829 5829 5829 5827 5824 5824 5821 5818 5815 5812 5810 5807 5804 5802 5798 5795 5791 5787 5783 5778 5774 5768 5763 5757 5750 5744 5737 5729 5722 5714 5706 5698 5690 5682 5674 5666 5659 5651 5643 5636 5629 5622 5615
5825 5825 5824 5824 5822 5820 5819 5816 5813 5810 5807 5804 5801 5799 5796 5793 5789 5786 5782 5777 5773 5768 5762 5757 5750 5744 5737 5730 5723 5715 5707 5699 5691 5683 5674 5666 5658 5650 5642 5635 5627 5620 5613 5606
5821 5820 5821 5818 5816 5815 5813 5810 5807 5804 5802 5799 5796 5793 5790 5787 5783 5780 5776 5771 5767 5761 5756 5750 5744 5737 5730 5723 5716 5708 5700 5692 5683 5675 5666 5658 5650 5642 5634 5626 5619 5611 5604 5597
5816 5816 5814 5812 5810 5809 5806 5804 5802 5799 5796 5793 5790 5787 5784 5781 5777 5773 5769 5765 5760 5755 5749 5743 5737 5730 5723 5716 5708 5700 5692 5684 5675 5667 5658 5650 5642 5634 5626 5618 5611 5604 5596 5589
5808 5808 5807 5806 5804 5802 5800 5798 5796 5793 5790 5788 5785 5781 5778 5774 5771 5766 5762 5757 5753 5747 5742 5736 5730 5723 5716 5709 5701 5692 5684 5676 5667 5659 5651 5642 5634 5626 5619 5611 5604 5597 5589 5582
5801 5801 5800 5799 5798 5796 5794 5792 5790 5787 5784 5781 5778 5775 5771 5768 5764 5759 5755 5750 5745 5740 5734 5728 5722 5715 5708 5701 5693 5684 5676 5668 5660 5651 5643 5635 5627 5620 5612 5605 5597 5590 5583 5576
5794 5794 5793 5792 5791 5789 5787 5785 5783 5780 5777 5774 5771 5768 5764 5760 5756 5751 5747 5742 5737 5732 5726 5720 5714 5707 5700 5692 5685 5676 5668 5660 5652 5644 5636 5629 5621 5613 5605 5599 5591 5584 5577 5570
5787 5786 5785 5784 5783 5781 5779 5777 5775 5772 5770 5767 5763 5760 5756 5752 5748 5743 5738 5734 5729 5724 5718 5712 5705 5699 5691 5684 5676 5668 5661 5653 5645 5637 5630 5622 5615 5608 5601 5593 5586 5579 5572 5565
5779 5779 5777 5776 5774 5773 5771 5769 5766 5764 5761 5758 5754 5751 5747 5743 5739 5734 5730 5725 5720 5715 5709 5703 5697 5690 5683 5675 5668 5660 5653 5645 5638 5631 5623 5617 5609 5602 5595 5588 5582 5575 5568 5561
5771 5770 5768 5767 5765 5763 5762 5760 5757 5755 5752 5748 5745 5741 5738 5734 5730 5725 5721 5716 5711 5706 5700 5694 5687 5680 5673 5666 5659 5652 5645 5638 5631 5624 5617 5611 5604 5597 5590 5583 5577 5570 5564 5558
5762 5761 5759 5757 5756 5754 5752 5750 5748 5745 5742 5739 5735 5732 5728 5724 5720 5715 5710 5706 5701 5696 5690 5684 5677 5671 5664 5657 5650 5643 5637 5630 5624 5618 5611 5605 5599 5592 5586 5579 5573 5566 5560 5554
5752 5751 5749 5748 5746 5744 5742 5739 5737 5734 5731 5728 5724 5721 5717 5713 5709 5704 5700 5694 5689 5684 5679 5673 5667 5661 5655 5648 5642 5635 5629 5623 5617 5611 5606 5600 5594 5588 5582 5575 5569 5563 5557 5551
5743 5741 5739 5737 5735 5733 5731 5728 5725 5722 5719 5716 5712 5708 5705 5700 5696 5692 5688 5683 5678 5673 5668 5661 5656 5650 5645 5639 5633 5627 5622 5616 5611 5605 5600 5595 5589 5583 5578 5572 5566 5561 5555 5549
5731 5730 5728 5725 5723 5721 5718 5715 5712 5709 5706 5702 5699 5695 5691 5687 5683 5679 5675 5670 5665 5661 5656 5650 5645 5640 5634 5629 5624 5619 5614 5609 5604 5600 5595 5590 5585 5580 5574 5569 5564 5559 5553 5548
5719 5717 5715 5712 5710 5707 5704 5701 5698 5695 5691 5688 5684 5681 5677 5673 5669 5665 5661 5657 5652 5647 5643 5638 5633 5628 5624 5620 5615 5611 5607 5602 5598 5594 5590 5585 5581 5576 5571 5567 5562 5557 5552 5547
5706 5704 5701 5699 5696 5693 5690 5686 5683 5680 5676 5673 5669 5665 5662 5658 5654 5650 5646 5643 5639 5633 5629 5625 5621 5617 5613 5610 5606 5602 5599 5595 5592 5588 5584 5581 5577 5573 5569 5564 5560 5556 5552 5547
5692 5689 5687 5684 5681 5678 5674 5671 5667 5664 5660 5656 5653 5649 5646 5642 5638 5635 5630 5627 5624 5619 5615 5612 5609 5606 5603 5600 5597 5594 5591 5588 5585 5582 5579 5576 5573 5569 5566 5562 5559 5555 5551 5548
5676 5674 5671 5668 5665 5661 5658 5654 5651 5647 5643 5640 5636 5632 5629 5625 5621 5618 5616 5612 5608 5605 5602 5599 5596 5594 5592 5590 5588 5586 5584 5581 5579 5577 5574 5572 5569 5566 5563 5560 5557 5554 5551 5548
5660 5657 5653 5650 5647 5644 5640 5637 5633 5630 5626 5622 5618 5614 5611 5608 5605 5601 5598 5596 5593 5590 5588 5586 5584 5583 5581 5580 5579 5578 5576 5575 5573 5571 5570 5567 5565 5563 5561 5558 5556 5553 5551 5548
5642 5639 5636 5632 5629 5625 5622 5619 5615 5612 5608 5605 5601 5597 5593 5590 5588 5585 5582 5580 5578 5576 5575 5574 5572 5572 5571 5571 5570 5570 5569 5568 5567 5566 5565 5563 5562 5560 5558 5556 5554 5552 5550 5549
5624 5621 5617 5614 5610 5607 5603 5600 5597 5593 5590 5587 5584 5580 5577 5574 5571 5569 5567 5565 5564 5563 5562 5562 5561 5561 5561 5562 5561 5562 5562 5562 5561 5561 5560 5559 5558 5557 5556 5554 5553 5552 5550 5549
5606 5602 5599 5596 5592 5588 5585 5581 5578 5575 5572 5569 5566 5564 5560 5558 5556 5554 5553 5552 5551 5551 5551 5551 5551 5552 5552 5553 5554 5554 5555 5556 5556 5556 5556 5555 5555 5554 5554 5553 5552 5551 5550 5550